Mitchell, SD

7:05 AM CST on December 06, 2019 (GMT -0600)
Mitchell Municipal

Weather History for KMHE - November, 2019

Change the Weather History Date:

Tuesday, November 12, 2019

  Actual Average Record
Temperature  
Mean Temperature 22 °F 36 °F  
Max Temperature 37 °F 47 °F 71 °F (1999)
Min Temperature 6 °F 26 °F -5 °F (1911)
Degree Days  
Heating Degree Days 43 29  
Month to date heating degree days 416 307  
Since 1 July heating degree days 1095 948  
Cooling Degree Days 0 0  
Month to date cooling degree days 0 0  
Year to date cooling degree days 937 824  
Moisture  
Dew Point 13 °F    
Average Humidity 66    
Maximum Humidity 84    
Minimum Humidity 47    
Precipitation  
Precipitation 0.00 in 0.03 in 1.32 in (1982)
Month to date precipitation 0.12 0.43  
Year to date precipitation 34.12 20.72  
Snow  
Snow 0.00 in - 6.00 in (1959)
Month to date snowfall 0.6  
Since 1 July snowfall 0.6  
Since 1 September snowfall 0.6  
Snow Depth 0.00 in    
Sea Level Pressure  
Sea Level Pressure 30.23 in    
Wind  
Wind Speed 13 mph (South)    
Max Wind Speed 29 mph    
Max Gust Speed 38 mph    
Visibility 10 miles    
Events      
T = Trace of Precipitation, MM = Missing Value Source: NWS Daily Summary

Daily Weather History Graph

Daily Weather History Graph

Search for Another Location

Airport or City:

Astronomy

Nov. 12, 2019 Rise Set
Actual Time 7:22 AM CST 5:09 PM CST
Civil Twilight 6:51 AM CST 5:40 PM CST
Nautical Twilight 6:16 AM CST 6:15 PM CST
Astronomical Twilight 5:43 AM CST 6:48 PM CST
Moon 5:38 PM CST (11/12) 7:13 AM CST (11/12)
Length of Visible Light 10h 48m
Length of Day
9h 47m
Full, 100% of the Moon is Illuminated
Nov 12
Full
Nov 19
Last Quarter
Nov 26
New
Dec 4
First Quarter
Dec 11
Full

Hourly Weather History & Observations

Time (CST) Temp. Windchill Dew Point Humidity Pressure Visibility Wind Dir Wind Speed Gust Speed Precip Events Conditions
12:53 AM 6.1 °F -2.8 °F 1.9 °F 83% 30.70 in 10.0 mi South 4.6 mph - N/A   Clear
1:53 AM 7.0 °F 0.1 °F 1.9 °F 80% 30.68 in 10.0 mi SSW 3.5 mph - N/A   Clear
2:53 AM 8.1 °F -2.0 °F 1.9 °F 76% 30.65 in 10.0 mi South 5.8 mph - N/A   Clear
3:53 AM 9.0 °F -4.2 °F 1.9 °F 73% 30.61 in 10.0 mi South 9.2 mph - N/A   Clear
4:53 AM 10.0 °F -2.9 °F 3.9 °F 76% 30.56 in 10.0 mi SSE 9.2 mph - N/A   Clear
5:53 AM 9.0 °F - 3.0 °F 77% 30.52 in 10.0 mi North - - N/A   Clear
6:53 AM 8.1 °F -7.7 °F 1.9 °F 76% 30.47 in 10.0 mi SSE 12.7 mph - N/A   Clear
7:53 AM 10.0 °F -7.1 °F 3.9 °F 76% 30.44 in 10.0 mi SSE 16.1 mph - N/A   Clear
8:53 AM 12.9 °F -6.1 °F 6.1 °F 74% 30.38 in 10.0 mi SSE 23.0 mph 29.9 mph N/A   Clear
9:53 AM 18.0 °F 1.3 °F 10.0 °F 71% 30.31 in 10.0 mi South 20.7 mph 27.6 mph N/A   Clear
10:53 AM 21.9 °F 6.5 °F 10.9 °F 63% 30.25 in 10.0 mi South 20.7 mph 35.7 mph N/A   Clear
11:53 AM 27.0 °F 13.5 °F 12.9 °F 56% 30.18 in 10.0 mi South 19.6 mph 32.2 mph N/A   Clear
1:53 PM 33.1 °F 21.2 °F 15.1 °F 48% 30.08 in 10.0 mi South 20.7 mph 34.5 mph N/A   Clear
2:53 PM 36.0 °F 27.1 °F 18.0 °F 48% 30.04 in 10.0 mi South 13.8 mph 28.8 mph N/A   Clear
3:53 PM 36.0 °F 26.3 °F 19.0 °F 50% 30.02 in 10.0 mi South 16.1 mph 27.6 mph N/A   Clear
4:53 PM 34.0 °F 23.4 °F 21.0 °F 59% 29.98 in 10.0 mi SSE 17.3 mph - N/A   Clear
5:53 PM 32.0 °F 21.6 °F 21.0 °F 64% 29.98 in 10.0 mi South 15.0 mph - N/A   Clear
6:53 PM 30.0 °F 19.5 °F 21.9 °F 72% 29.95 in 10.0 mi SSE 13.8 mph - N/A   Clear
7:53 PM 30.9 °F - 23.0 °F 72% 29.93 in 10.0 mi North - - N/A   Clear
8:53 PM 30.0 °F 21.7 °F 23.0 °F 75% 29.91 in 10.0 mi South 9.2 mph - N/A   Clear
9:53 PM 30.9 °F 23.5 °F 24.1 °F 76% 29.90 in 10.0 mi South 8.1 mph - N/A   Mostly Cloudy
10:53 PM 27.0 °F 18.7 °F 23.0 °F 85% 29.88 in 10.0 mi South 8.1 mph - N/A   Clear
11:53 PM 27.0 °F 21.6 °F 23.0 °F 85% 29.86 in 10.0 mi ESE 4.6 mph - N/A   Partly Cloudy